SL-14 R/B, 18422

Orbit data source: Space-Track

SL-14 R/B, 18422 is space debris in LEO originally from a launch on Tue, 20 Oct 1987 UTC launched from the Plesetsk Missile And Space Complex (PKMTR). Debris objects in space refer to the collection of defunct objects orbiting the Earth. Examples of debris include non-operational satellites, rocket bodies, and fragments generated from explosions, collisions, or faulty payload assembly.

Loading next visibility...
Identifier
18422, 1987-088B
Orbit
LEO
Country
Flag of CISCIS
Related business
Manufacturer
Yuzhnoe
Mission
Spacecraft
Bus & Motor
S5M, Unknown motor
Mass
1,600 kg wet, 1,600 kg dry
Launch date (UTC)
1987-10-20 (39 years ago)
Launch vehicle
Unknown
Launch site
Plesetsk Missile And Space Complex (PKMTR)
Object type
Payload
Rocket body
Debris
Shape & HBR
Cyl, 1.4 m
Radar Cross Section
7.351 m², Large (>1 m²)

Expand to show TLE details & history
Last TLE update: 14 hours ago

TLE from 14 hours ago
0 SL-14 R/B
1 18422U 87088B   26171.43835642  .00000309  00000-0  32931-4 0  9994
2 18422  82.5109 330.5310 0019490  35.2242 325.0257 14.85414563 68559
Epoch: 2026-06-20T10:31Z
TLE epoch observation values (Epoch: 2026-06-20T10:31:13.994Z)
Latitude
-0.0001°
Longitude
-95.9303°
Altitude
604.168 km
Speed
7.563 km/s
True Right ascension
22h 02m 07s
True Declination
0° 00' 00"
Sunlit
Object was in full shadow at epoch
Visualization orbit readout
Latitude
Unknown
Longitude
Unknown
Altitude
Unknown
Speed
Unknown
Apparent Right ascension
Unknown
Apparent Declination
Unknown
Sunlit
N/A
Visualization observer readout
Local Sidereal Time
10:59:17
Azimuth
Unknown
Elevation
Unknown
Doppler factor
Unknown
Orbital elements
Apogee altitude
622.919 km
Perigee altitude
595.682 km
Semi-major axis
6,987.438 km
Eccentricity
0.00195
Inclination
82.5109°
RAAN
330.531°
Arg. of periapsis
35.2242°
True anomaly
324.89742°
Mean anomaly
325.0257°
Eccentric anomaly
324.96159°
Mean motion
3.71592 °/min
Orbital period
96.88 mins
BSTAR
0.000032931
Loading maneuver chart data...
Computing Atmospheric mass density...
Loading historical data...
Loading historical data...
Loading historical data...
Loading historical data...
Loading historical data...
Loading historical data...
Loading historical data...
Other satellites on launch #88 in the year 1987 (1987-10-20 UTC)

Documentation

Showing up to 5 results
|